Location: Fountain Hills
(33.6120°N, 111.7170°W)
Time: 22:29:52
(UTC-07:00)

Daily predictions for brighter satellites

Satellite Brightness Start Highest point End
(mag) Time Altitude Azimuth Time Altitude Azimuth Time Altitude Azimuth
NOAA 12 4.2 19:15:56 10° SSE 19:21:10 85° WSW 19:26:25 10° NNW
ALOS 3.1 19:21:22 10° SE 19:25:29 32° ENE 19:29:38 10° N
USA 186 3.6 19:24:16 10° ESE 19:25:58 14° ENE 19:27:36 10° NE
Cosmos 2297 Rocket 3.1 19:21:45 10° N 19:26:40 30° ENE 19:31:35 10° ESE
Meteor 1-5 Rocket 4.1 19:21:35 10° S 19:26:53 75° E 19:32:20 10° NNE
OTV 4 0.6 19:24:09 10° WNW 19:27:06 62° NNE 19:30:00 10° E
Cosmos 2082 4.2 19:22:21 10° N 19:27:37 40° ENE 19:32:52 10° SE
Cosmos 1346 Rocket 3.2 19:23:53 10° N 19:27:41 42° E 19:31:30 10° SSE
Meteor 2-16 Rocket 4.4 19:22:14 10° S 19:28:16 73° E 19:34:20 10° N
Helios 1A 2.9 19:24:52 10° SSE 19:29:02 81° ENE 19:33:13 10° N
Cosmos 1777 Rocket 4.2 19:30:18 10° NNW 19:35:34 78° WSW 19:40:49 10° S
Cosmos 1461 2.9 19:36:38 10° NNW 19:40:36 57° ENE 19:44:18 11° SE
SL-24 R/B - RUBIN 2 4.3 19:36:27 10° SSW 19:42:04 79° ESE 19:48:26 10° NNE
CZ-4B DEB 2.8 19:41:30 10° SSE 19:44:43 63° ENE 19:47:59 10° N
NOSS 3-4 (A) 3.9 19:39:32 10° NNW 19:46:42 86° ENE 19:54:15 10° SSE
NOSS 3-4 (C) 3.9 19:39:39 10° NNW 19:46:49 85° ENE 19:54:22 10° SSE
Tiangong 1 3.5 19:46:09 10° NW 19:48:08 16° N 19:50:06 10° NE
Cosmos 1743 4.5 19:48:12 14° E 19:48:13 14° E 19:50:24 10° NE
Spot 2 Rocket 4.3 19:49:30 10° S 19:54:28 53° W 19:59:26 10° NNW
RESURS DK-1 4.2 19:52:12 10° NNE 19:54:34 15° ENE 19:55:34 14° ENE
Cosmos 1605 Rocket 4.0 19:48:30 10° S 19:54:51 84° E 20:01:09 10° N
Cosmos 1697 Rocket 2.7 19:52:32 10° S 19:58:04 59° ESE 20:03:37 10° NNE
Cosmos 1626 Rocket 3.6 19:59:49 10° N 20:04:08 57° E 20:07:44 14° SSE
Cosmos 1455 Rocket 4.3 20:00:20 10° SSW 20:04:27 44° W 20:08:37 10° N
Cosmos 2100 Rocket 4.4 19:58:58 10° SSE 20:04:44 40° E 20:10:28 10° NNE
Envisat 4.3 20:03:38 19° E 20:05:06 22° ENE 20:08:56 10° NNE
Iridium 4 Rocket 3.5 20:00:50 10° N 20:05:33 47° E 20:08:57 16° SSE
Cosmos 2084 4.2 20:04:31 10° NNW 20:08:18 34° NE 20:09:46 26° E
Cosmos 2298 Rocket 4.4 20:04:27 10° N 20:09:33 45° ENE 20:12:24 24° SE
Cosmos 1937 Rocket 4.5 20:05:58 10° N 20:10:33 29° ENE 20:12:16 24° E
Cosmos 1602 Rocket 3.5 20:09:30 10° N 20:13:57 76° E 20:17:35 15° SSE
H-2A R/B 2.8 20:10:23 11° S 20:14:04 83° WSW 20:18:00 10° NNW
Cosmos 2061 Rocket 4.3 20:09:10 10° SSE 20:15:06 44° E 20:20:59 10° NNE
Cosmos 220 Rocket 3.8 20:13:22 10° NNW 20:17:35 78° ENE 20:19:52 26° SSE
Cosmos 1980 Rocket 2.2 20:16:07 10° S 20:21:37 55° ESE 20:27:10 10° NNE
Lacrosse 5 2.8 20:17:56 10° NNW 20:22:30 33° NE 20:24:05 27° ENE
Cosmos 1975 3.6 20:19:18 10° SSW 20:23:19 55° W 20:27:21 10° N
SPOT 5 4.3 20:28:37 22° ENE 20:28:37 22° ENE 20:32:06 10° NNE
ERS-1 Rocket 3.2 20:28:22 36° SE 20:30:01 51° ENE 20:34:52 10° N
Orbus 7S 4.3 20:27:34 10° W 20:32:05 28° SSW 20:32:24 28° S
Lacrosse 5 rocket 1.4 20:29:24 10° NW 20:33:00 57° SW 20:33:43 46° S
CZ-3C R/B 3.7 19:42:00 10° W 20:33:19 45° SSW 20:38:31 25° SSE
Cosmos 1459 Rocket 3.8 20:27:40 10° S 20:33:38 66° E 20:39:40 10° NNE
Cosmos 2150 Rocket 3.9 20:30:06 10° NNW 20:35:14 69° ENE 20:37:01 41° SE
CZ-4 DEB 3.4 20:40:10 46° N 20:40:10 46° N 20:42:30 10° N
SJ-11-01 4.1 20:40:05 46° SSE 20:41:25 75° ENE 20:46:06 10° N
Cosmos 1763 Rocket 3.3 20:37:22 10° S 20:42:26 67° ESE 20:47:28 10° NNE
Cosmos 2098 Rocket 4.5 20:41:42 38° ESE 20:42:57 42° E 20:48:36 10° NNE
Cosmos 1606 Rocket 3.8 20:43:37 50° ENE 20:43:37 50° ENE 20:47:24 10° NNE
Cosmos 1500 4.2 20:40:04 10° SSW 20:43:40 45° W 20:47:18 10° N
Cosmos 1898 Rocket 3.5 20:45:51 10° NNW 20:51:08 78° WSW 20:52:53 43° S
DELTA 2 R/B (1) 3.5 20:47:15 10° WNW 20:52:50 89° SW 20:53:52 61° ESE
Cosmos 2322 Rocket 3.9 20:58:39 19° NE 20:58:39 19° NE 21:00:19 10° NE
Cosmos 2227 Rocket 3.9 20:50:43 10° NW 20:55:31 29° WSW 21:00:17 10° SSW
Cosmos 1340 4.0 20:53:07 10° N 20:55:15 30° NNE 20:55:15 30° NNE
USA 186 4.4 20:55:35 14° SW 20:56:54 17° W 20:58:57 10° NW
Cosmos 1939 Rocket 3.1 21:00:58 71° NNW 21:00:58 71° NNW 21:04:43 10° NNW
OAO 2 Rocket 3.2 20:56:24 10° W 21:01:27 79° N 21:01:47 74° NE
OTV 4 3.3 21:00:50 10° W 21:01:32 14° WSW 21:01:32 14° WSW
Cosmos 841 Rocket 3.4 21:03:13 29° SSW 21:05:55 83° WNW 21:11:10 10° NNE
Milstar 3 Cent rocket 4.1 20:43:34 10° W 21:05:59 68° SSW 21:10:48 42° SE
Cosmos 1726 Rocket 4.2 21:07:22 46° N 21:07:22 46° N 21:10:30 10° N
Meteor 2-9 Rocket 4.4 21:08:47 52° NE 21:08:47 52° NE 21:13:07 10° NNE
Cosmos 2360 4.2 21:03:54 10° SSW 21:09:36 80° WNW 21:15:22 10° NNE
Cosmos 2297 Rocket 3.7 21:05:43 10° NW 21:10:36 31° WSW 21:13:57 17° SSW
Meteor 1-21 4.1 21:05:10 10° N 21:10:59 81° E 21:11:24 76° SE
SL-08 R/B 4.3 21:10:05 59° SSE 21:11:19 79° E 21:17:30 10° N
Cosmos 1802 Rocket 4.3 21:06:39 14° SSW 21:12:13 70° W 21:18:39 10° N
MetOp-A 4.4 21:15:10 54° NE 21:15:10 54° NE 21:19:39 10° N
Cosmos 2227 4.3 21:14:11 10° NNW 21:19:24 65° NE 21:19:24 65° NE
Cosmos 2016 Rocket 4.1 21:19:32 35° SSW 21:22:11 68° W 21:28:21 10° N
Tiangong 1 4.4 21:22:18 10° NW 21:22:45 13° NW 21:22:45 13° NW
ASTEX 1 3.9 21:21:14 10° N 21:25:07 55° N 21:25:07 55° N
RESURS DK-1 4.2 21:28:56 10° NW 21:31:31 30° WNW 21:31:31 30° WNW
H-2A R/B 3.7 21:35:03 30° NW 21:35:03 30° NW 21:37:17 10° NNW
Cosmos 1375 Rocket 4.5 21:34:44 85° N 21:34:44 85° N 21:41:13 10° NNE
Envisat 4.2 21:43:51 35° W 21:43:51 35° W 21:48:30 10° NNW
SL-16 R/B 3.6 21:54:57 32° N 21:54:57 32° N 21:57:55 10° NNE
ARGOS 4.4 21:57:55 36° NNW 21:57:55 36° NNW 22:01:03 10° NNW
H-2A R/B 4.2 22:08:08 18° N 22:08:08 18° N 22:09:27 10° N
Lacrosse 5 3.9 22:00:54 10° WNW 22:03:17 24° W 22:03:17 24° W
Cosmos 2263 Rocket 4.2 22:30:31 10° NNW 22:32:32 23° NNW 22:32:32 23° NNW
Cosmos 2322 Rocket 4.2 22:40:22 23° NW 22:40:22 23° NW 22:43:48 10° N
